Location: Bintulu
(3.1667°N, 113.0333°E)
Time: 10:56:04
(UTC+00:00)

Cosmos 2082 - Pass Details

Date: 13 December 2025
Orbit: 831 x 855 km, 71.0° (Epoch: 18 January)

Event Time Altitude Azimuth Distance (km) Brightness Sun altitude
Rises 12:19:30 0° 341° (NNW) 3,410 6.8 -28.1°
Reaches altitude 10° 12:21:57 10° 339° (NNW) 2,476 6.1 -28.7°
Enters shadow 12:22:14 11° 339° (NNW) 2,371 6.0 -28.7°
Exits shadow 12:26:36 58° 314° (NW) 986 4.0 -29.7°
Maximum altitude 12:27:37 72° 255° (WSW) 893 3.8 -30.0°
Drops below altitude 10° 12:33:18 10° 171° (S) 2,476 6.3 -31.2°
Sets 12:35:45 0° 169° (S) 3,411 7.0 -31.8°
